Satellite: ORSTED
Catalog number: 25635
Epoch time:      102363.55582918
Element set:     793 
Inclination:       96.4459 deg
RA of node:       357.0184 deg
Eccentricity:    0.0146296
Arg of perigee:   130.5522 deg
Mean anomaly:     230.8526 deg
Mean motion:   14.44750875 rev/day
Decay rate:    9.6900E-006 rev/day^2
Epoch rev:           20257
Checksum:              332

Satellite: SUNSAT
Catalog number: 25636
Epoch time:      102362.22282148
Element set:     652 
Inclination:       96.4495 deg
RA of node:       354.7701 deg
Eccentricity:    0.0149959
Arg of perigee:   140.6676 deg
Mean anomaly:     220.5526 deg
Mean motion:   14.42907914 rev/day
Decay rate:    5.6099E-006 rev/day^2
Epoch rev:           20226
Checksum:              325

Satellite: UOSAT 12
Catalog number: 25693
Epoch time:      102364.49187150
Element set:     567 
Inclination:       64.5578 deg
RA of node:       164.0494 deg
Eccentricity:    0.0015539
Arg of perigee:   316.4390 deg
Mean anomaly:      43.5452 deg
Mean motion:   14.76326317 rev/day
Decay rate:    5.3200E-006 rev/day^2
Epoch rev:           19886
Checksum:              327

Satellite: FENGYUN 1C
Catalog number: 25730
Epoch time:      102363.90681067
Element set:     729 
Inclination:       98.6377 deg
RA of node:        25.2047 deg
Eccentricity:    0.0015068
Arg of perigee:   144.2367 deg
Mean anomaly:     215.9817 deg
Mean motion:   14.11727559 rev/day
Decay rate:    2.6999E-007 rev/day^2
Epoch rev:           18748
Checksum:              347

Satellite: ASTRA 1H
Catalog number: 25785
Epoch time:      102354.00000000
Element set:     366 
Inclination:        0.0122 deg
RA of node:       319.8851 deg
Eccentricity:    0.0002995
Arg of perigee:    65.1991 deg
Mean anomaly:      82.5348 deg
Mean motion:    1.00273184 rev/day
Decay rate:    1.4299E-006 rev/day^2
Epoch rev:            1289
Checksum:              269

Satellite: TERRA
Catalog number: 25994
Epoch time:      102364.32143446
Element set:     549 
Inclination:       98.2058 deg
RA of node:        76.2992 deg
Eccentricity:    0.0000805
Arg of perigee:   112.1140 deg
Mean anomaly:     248.0145 deg
Mean motion:   14.57152642 rev/day
Decay rate:    7.1099E-006 rev/day^2
Epoch rev:           16135
Checksum:              414

Satellite: JAWSAT
Catalog number: 26061
Epoch time:      102364.19680779
Element set:     728 
Inclination:      100.2134 deg
RA of node:        46.9003 deg
Eccentricity:    0.0035594
Arg of perigee:    62.6288 deg
Mean anomaly:     297.8503 deg
Mean motion:   14.37764975 rev/day
Decay rate:    1.1209E-005 rev/day^2
Epoch rev:           15329
Checksum:              318

Satellite: OPAL
Catalog number: 26063
Epoch time:      102363.67328419
Element set:     685 
Inclination:      100.2190 deg
RA of node:        44.0001 deg
Eccentricity:    0.0037422
Arg of perigee:    69.6971 deg
Mean anomaly:     290.8220 deg
Mean motion:   14.35459369 rev/day
Decay rate:    3.7299E-006 rev/day^2
Epoch rev:           15308
Checksum:              301

Satellite: ASUSAT
Catalog number: 26065
Epoch time:      102364.18870556
Element set:     696 
Inclination:      100.2176 deg
RA of node:        44.7471 deg
Eccentricity:    0.0037842
Arg of perigee:    70.2265 deg
Mean anomaly:     290.2987 deg
Mean motion:   14.35485207 rev/day
Decay rate:    4.0099E-006 rev/day^2
Epoch rev:           15315
Checksum:              312

Satellite: GOES 11
Catalog number: 26352
Epoch time:      102363.16770433
Element set:     950 
Inclination:        0.0100 deg
RA of node:        26.5896 deg
Eccentricity:    0.0004822
Arg of perigee:   243.3234 deg
Mean anomaly:     136.1970 deg
Mean motion:    1.00259941 rev/day
Decay rate:   -3.4999E-007 rev/day^2
Epoch rev:             972
Checksum:              280

Satellite: EUTELSAT W4
Catalog number: 26369
Epoch time:      102359.81848933
Element set:     331 
Inclination:        0.0244 deg
RA of node:       337.3956 deg
Eccentricity:    0.0009168
Arg of perigee:   318.5766 deg
Mean anomaly:     128.8640 deg
Mean motion:    1.00272641 rev/day
Decay rate:    1.6699E-006 rev/day^2
Epoch rev:             950
Checksum:              318

Satellite: FENGYUN 2B
Catalog number: 26382
Epoch time:      102363.64018957
Element set:     757 
Inclination:        0.6965 deg
RA of node:       287.0576 deg
Eccentricity:    0.0000112
Arg of perigee:   187.4220 deg
Mean anomaly:     318.4714 deg
Mean motion:    1.00273336 rev/day
Decay rate:   -3.2099E-006 rev/day^2
Epoch rev:             920
Checksum:              289

Satellite: EUTELSAT W1
Catalog number: 26487
Epoch time:      102362.90356483
Element set:     333 
Inclination:        0.0052 deg
RA of node:       134.7602 deg
Eccentricity:    0.0003428
Arg of perigee:   122.7418 deg
Mean anomaly:     174.9300 deg
Mean motion:    1.00271995 rev/day
Decay rate:    7.6999E-007 rev/day^2
Epoch rev:             850
Checksum:              287

Satellite: ASTRA 2B
Catalog number: 26494
Epoch time:      102354.00000000
Element set:     249 
Inclination:        0.0178 deg
RA of node:       354.5658 deg
Eccentricity:    0.0005000
Arg of perigee:   302.8402 deg
Mean anomaly:     179.1852 deg
Mean motion:    1.00276704 rev/day
Decay rate:    1.7300E-006 rev/day^2
Epoch rev:             831
Checksum:              230

Satellite: NOAA 16
Catalog number: 26536
Epoch time:      102363.48717637
Element set:     143 
Inclination:       98.8946 deg
RA of node:       307.1664 deg
Eccentricity:    0.0011471
Arg of perigee:    89.9039 deg
Mean anomaly:     270.3475 deg
Mean motion:   14.11873196 rev/day
Decay rate:    5.2499E-006 rev/day^2
Epoch rev:           11694
Checksum:              350

Satellite: SAUDISAT 1A
Catalog number: 26545
Epoch time:      102362.27448385
Element set:     390 
Inclination:       64.5560 deg
RA of node:       192.6295 deg
Eccentricity:    0.0055169
Arg of perigee:   246.9295 deg
Mean anomaly:     112.5988 deg
Mean motion:   14.78814951 rev/day
Decay rate:    1.7410E-005 rev/day^2
Epoch rev:           12148
Checksum:              336

Satellite: UNISAT
Catalog number: 26547
Epoch time:      102363.02971145
Element set:     409 
Inclination:       64.5556 deg
RA of node:       192.7315 deg
Eccentricity:    0.0062273
Arg of perigee:   249.3473 deg
Mean anomaly:     110.0945 deg
Mean motion:   14.79480926 rev/day
Decay rate:    2.8110E-005 rev/day^2
Epoch rev:           12156
Checksum:              301

Satellite: TIUNGSAT 1
Catalog number: 26548
Epoch time:      102363.52495820
Element set:     394 
Inclination:       64.5549 deg
RA of node:       182.2384 deg
Eccentricity:    0.0048615
Arg of perigee:   245.0164 deg
Mean anomaly:     114.5885 deg
Mean motion:   14.81063739 rev/day
Decay rate:    2.1890E-005 rev/day^2
Epoch rev:           12180
Checksum:              317

Satellite: SAUDISAT 1B
Catalog number: 26549
Epoch time:      102364.57397740
Element set:     653 
Inclination:       64.5520 deg
RA of node:       189.4223 deg
Eccentricity:    0.0059447
Arg of perigee:   247.1214 deg
Mean anomaly:     112.3583 deg
Mean motion:   14.77767262 rev/day
Decay rate:    1.5839E-005 rev/day^2
Epoch rev:           12175
Checksum:              327

Satellite: AMSAT OSCAR 40
Catalog number: 26609
Epoch time:      102363.51138608
Element set:     299 
Inclination:        7.8703 deg
RA of node:        73.6119 deg
Eccentricity:    0.7931814
Arg of perigee:   127.4932 deg
Mean anomaly:     332.8254 deg
Mean motion:    1.25597485 rev/day
Decay rate:    3.9999E-008 rev/day^2
Epoch rev:             994
Checksum:              352

Satellite: GOES 12
Catalog number: 26871
Epoch time:      102363.31932628
Element set:     746 
Inclination:        0.4238 deg
RA of node:        98.4660 deg
Eccentricity:    0.0001774
Arg of perigee:    76.7013 deg
Mean anomaly:     292.4561 deg
Mean motion:    1.00262133 rev/day
Decay rate:   -7.9000E-007 rev/day^2
Epoch rev:             532
Checksum:              275

Satellite: STARSHINE 3
Catalog number: 26929
Epoch time:      102364.57490919
Element set:     620 
Inclination:       67.0371 deg
RA of node:       131.3797 deg
Eccentricity:    0.0004322
Arg of perigee:   309.4730 deg
Mean anomaly:      50.6067 deg
Mean motion:   15.96665879 rev/day
Decay rate:    3.3051E-003 rev/day^2
Epoch rev:            7086
Checksum:              321

Satellite: PCSAT
Catalog number: 26931
Epoch time:      102364.20603200
Element set:     364 
Inclination:       67.0486 deg
RA of node:        25.2654 deg
Eccentricity:    0.0005450
Arg of perigee:   254.9695 deg
Mean anomaly:     105.0798 deg
Mean motion:   14.29084672 rev/day
Decay rate:    4.1600E-006 rev/day^2
Epoch rev:            6515
Checksum:              288

Satellite: SAPPHIRE
Catalog number: 26932
Epoch time:      102364.54039951
Element set:     359 
Inclination:       67.0572 deg
RA of node:        24.1232 deg
Eccentricity:    0.0006768
Arg of perigee:   239.9435 deg
Mean anomaly:     120.0994 deg
Mean motion:   14.29273034 rev/day
Decay rate:    2.9499E-006 rev/day^2
Epoch rev:            6522
Checksum:              423

Satellite: ENVISAT
Catalog number: 27386
Epoch time:      102364.52512200
Element set:     798 
Inclination:       98.5513 deg
RA of node:        68.7932 deg
Eccentricity:    0.0000911
Arg of perigee:    99.1134 deg
Mean anomaly:     261.0152 deg
Mean motion:   14.32248336 rev/day
Decay rate:    3.9299E-006 rev/day^2
Epoch rev:            4358
Checksum:              422

